Regional Weather Roundup
Issued by NWS

Home | Current Version | Previous Version | Graphics & Text | Print | Product List | Glossary On
Versions: 1 2 3 4 5 6 7 8 9 10 11 12 13 14 15 16 17 18 19 20 21 22 23 24 25 26 27 28 29 30 31 32 33 34 35 36 37 38 39 40 41 42 43 44 45 46 47 48 49 50
280
ASUS43 KLMK 241010
RWRKY
KENTUCKY REGIONAL WEATHER ROUNDUP
NATIONAL WEATHER SERVICE LOUISVILLE KY
500 AM EST TUE JAN 24 2017

NOTE "FAIR" INDICATES FEW OR NO CLOUDS BELOW 12,000 FEET
WITH NO SIGNIFICANT WEATHER AND/OR OBSTRUCTIONS TO VISIBILITY.

KYZ001>023-026-027-061>063-070>075-241100-
WESTERN AND SOUTH CENTRAL KENTUCKY

CITY           SKY/WX    TMP DP  RH WIND       PRES   REMARKS
PADUCAH        CLOUDY    41  32  70 N5        29.89R
HENDERSON      CLOUDY    41  34  75 NW6       29.87S
OWENSBORO      CLOUDY    40  35  83 N5        29.88R
HOPKINSVILLE   CLOUDY    41  34  77 NW7       29.87R
BOWLING GREEN  CLOUDY    42  35  76 W9        29.87R
GLASGOW        CLOUDY    39  35  85 NW7       29.86R WCI  34
$$

KYZ024-025-028>034-038-045-046-053-241100-
NORTH CENTRAL KENTUCKY

CITY           SKY/WX    TMP DP  RH WIND       PRES   REMARKS
LOUISVILLE/SDF DRIZZLE   40  36  86 W13       29.83R FOG     WCI  32
LOUISVILLE/LOU CLOUDY    41  37  86 NW9       29.83R
FORT KNOX      CLOUDY    37  36  93 W8        29.83R WCI  31
$$

KYZ035>037-039>044-047>052-055>060-089>105-241100-
NORTHEAST KENTUCKY

CITY           SKY/WX    TMP DP  RH WIND       PRES   REMARKS
LEXINGTON      CLOUDY    40  38  93 NW8       29.78R FOG     WCI  34
COVINGTON      DRIZZLE   40  39  97 NW9       29.76R FOG     WCI  34
FRANKFORT      CLOUDY    41  37  86 W8        29.78R FOG
$$

KYZ054-064>069-076>088-106>120-241100-
SOUTHEAST KENTUCKY

CITY           SKY/WX    TMP DP  RH WIND       PRES   REMARKS
JACKSON        CLOUDY    41  39  93 VRB7      29.72R FOG
LONDON         CLOUDY    39  32  76 W7        29.77R HAZE    WCI  34
SOMERSET       CLOUDY    37  37 100 W8        29.82R FOG     WCI  31
MIDDLESBORO    CLOUDY    42  38  89 CALM      29.76R
MONTICELLO     CLOUDY    39  38  96 W10       29.84R WCI  32
$$





USA.gov is the U.S. government's official web portal to all federal, state and local government web resources and services.